Regional Weather Roundup
Issued by NWS Bismarck, ND

Home | Current Version | Previous Version | Text Only | Print | Product List | Glossary On
Versions: 1 2 3 4 5 6 7 8 9 10 11 12 13 14 15 16 17 18 19 20 21 22 23 24 25 26 27 28 29 30 31 32 33 34 35 36 37 38 39 40 41 42 43 44 45 46 47 48 49 50
000
ASUS43 KBIS 280720
RWRBIS

NWR BROADCAST TEXT
NATIONAL WEATHER SERVICE BISMARCK ND
100 AM CST FRI NOV 28 2014

NOTE: "FAIR" INDICATES FEW OR NO CLOUDS BELOW 12,000 FEET WITH NO
SIGNIFICANT WEATHER AND/OR OBSTRUCTIONS TO VISIBILITY.


CITY           SKY/WX    TMP DP  RH WIND       PRES   REMARKS
WILLISTON      MOCLDY    16  12  84 E6        29.76F WCI   7
MINOT          CLOUDY     9   4  80 E14       29.87F WCI  -7
MINOT AFB      CLOUDY     9   5  85 SE14      29.89S WCI  -8
BISMARCK       PTCLDY     8   5  87 E10       29.87F WCI  -6
DICKINSON      PTCLDY    18  14  84 NE7       29.70F WCI   9
GARRISON         N/A     12   8  84 SE10      29.86R WCI  -1
HETTINGER ARPT CLEAR     25  21  85 CALM      29.73F
JAMESTOWN      CLOUDY     7   3  84 SE13      29.95F WCI  -9
BEACH          LGT RAIN  34  32  93 CALM      29.72R
CARRINGTON     CLOUDY     7   5  92 SE15      29.93F WCI -11
CROSBY         LGT SNOW  10   9  92 E16       29.81F WCI  -7
HARVEY         CLOUDY     7   3  85 SE13      29.92F WCI  -9
HAZEN          FAIR       7   3  85 NE5       29.83F WCI  -2
LINTON         FAIR      10   7  85 SE9       29.85F WCI  -2
MANDAN         CLOUDY     9   7  92 E9        29.84F WCI  -5
OAKES            N/A      7   5  92 E16       29.96F WCI -11
RUGBY          CLOUDY     7   1  78 SE12      29.96R WCI  -9
STANLEY        CLOUDY     9   9 100 E12       29.78F WCI  -6
TIOGA          CLOUDY    10  10 100 E14       29.81F WCI  -5
$$

CITY           SKY/WX    TMP DP  RH WIND       PRES   REMARKS
GRAND FORKS    CLOUDY     9   5  84 SE10      30.08F WCI  -5
GRAND FORKS AF NOT AVBL
DEVILS LAKE    CLOUDY     9  -2  61 SE10      29.95S WCI  -6
FARGO          LGT SNOW  12   6  77 SE12      30.06F WCI  -2
CANDO          CLOUDY     9   5  85 SE9       29.99S WCI  -5
CAVALIER       PTSUNNY    7   3  85 SE7       30.07F WCI  -5
GRAFTON        CLOUDY     9   5  85 SE9       30.07F WCI  -5
GWINNER        CLOUDY    10   5  79 SE16      30.00F WCI  -7
LANGDON        CLOUDY     7   1  78 SE13      29.97F WCI  -9
ROLLA          CLOUDY     5   3  92 SE9       29.96S WCI  -9
WALHALLA         N/A      5   1  85 SE8       30.07F WCI  -8
$$

CITY           SKY/WX    TMP DP  RH WIND       PRES   REMARKS
ABERDEEN       PTCLDY    12   7  80 E5        29.94F WCI   4
MOBRIDGE       PTCLDY    12   8  84 E13       29.81F WCI  -3
BUFFALO          N/A     39  27  62 W5        29.66F
RAPID CITY     MOCLDY    39  26  59 E3        29.80F
GLASGOW        MOCLDY    23  20  88 E16       29.69S WCI  10
SIDNEY         MOCLDY    18  14  86 N7        29.77R WCI   8
WOLF POINT     CLOUDY    20  16  84 E10       29.73S WCI   9
GLENDIVE       CLOUDY    28  27  93 E3        29.68F
MILES CITY     CLOUDY    40  32  73 S6        29.70S
BAKER          CLOUDY    37  29  72 VRB5      29.72F
$$

CITY           SKY/WX    TMP DP  RH WIND       PRES   REMARKS
BILLINGS       CLOUDY    47  30  51 SW12      29.75F
GREAT FALLS    MOCLDY    46  35  65 W17       29.64F
REGINA         LGT SNOW  12   9  85 E12G17    29.86F DRFTSNOWWCI  -2
ESTEVAN        LGT SNOW   9   5  85 E18       29.84F DRFTSNOWWCI -10
$$



USA.gov is the U.S. government's official web portal to all federal, state and local government web resources and services.